Location: Bacharowice
(49.9333°N, 19.5833°E)
Time: 08:04:48
(UTC+00:00)

Cosmos 1842 - Pass Details

Date: 11 May 2021
Orbit: 521 x 535 km, 82.5° (Epoch: 22 June)

Event Time Altitude Azimuth Distance (km) Brightness Sun altitude
Exits shadow 23:29:48 47° 122° (ESE) 704 3.6 -21.0°
Maximum altitude 23:30:17 50° 95° (E) 673 3.7 -21.0°
Drops below altitude 10° 23:34:04 10° 19° (NNE) 1,776 7.1 -20.8°
Sets 23:36:15 0° 15° (NNE) 2,673 8.4 -20.7°
